K7SKM Weather Reports


Display with metric or nautical units.
time (UTC)temp
F
wind
direction
speed
MPH
gust
MPH
rain 1hr
in
rain 24hr
in
rain mn
in
humidity
%
barometer
mb
20260503045806 64 217 0.0 0.0 0.00 0.00 0.00 61 1018.2
20260503045305 64 217 0.0 0.0 0.00 0.00 0.00 60 1018.5
20260503044800 64 217 0.0 0.0 0.00 0.00 0.00 59 1018.3
20260503044257 65 210 0.0 0.0 0.00 0.00 0.00 58 1018.2
20260503043755 65 210 0.0 0.0 0.00 0.00 0.00 57 1018.4
20260503043251 66 219 0.0 0.0 0.00 0.00 0.00 55 1018.2
20260503042747 67 236 0.0 0.0 0.00 0.00 0.00 54 1018.3
20260503042244 67 238 0.0 0.0 0.00 0.00 0.00 53 1018.1
20260503041740 67 277 0.0 0.0 0.00 0.00 0.00 53 1018.1
20260503041238 67 240 0.0 0.0 0.00 0.00 0.00 55 1018.2
20260503040736 67 237 0.0 0.0 0.00 0.00 0.00 54 1018.0
20260503040233 68 235 0.0 0.0 0.00 0.00 0.00 54 1017.8
20260503035729 68 235 0.0 0.0 0.00 0.00 0.00 53 1017.8
20260503035227 68 231 0.0 0.0 0.00 0.00 0.00 53 1017.9
20260503034724 68 247 0.0 0.0 0.00 0.00 0.00 53 1017.6
20260503034221 69 245 0.0 0.0 0.00 0.00 0.00 53 1017.7
20260503033719 69 242 0.0 0.0 0.00 0.00 0.00 53 1017.6
20260503033216 70 271 0.0 3.0 0.00 0.00 0.00 52 1017.5
20260503032714 70 269 0.0 0.0 0.00 0.00 0.00 52 1017.6
20260503032213 70 237 0.0 3.0 0.00 0.00 0.00 52 1017.5
20260503031709 70 223 0.0 3.0 0.00 0.00 0.00 51 1017.4
20260503031208 71 225 0.0 7.0 0.00 0.00 0.00 51 1017.4
20260503030703 71 229 0.0 5.0 0.00 0.00 0.00 50 1017.1
20260503030200 71 261 0.0 0.0 0.00 0.00 0.00 50 1017.3
20260503025657 72 238 0.0 0.0 0.00 0.00 0.00 50 1017.1
20260503025154 72 276 0.0 0.0 0.00 0.00 0.00 49 1017.2
20260503024650 72 252 6.0 10.0 0.00 0.00 0.00 49 1017.1
20260503024148 73 291 0.0 3.0 0.00 0.00 0.00 49 1017.2
20260503023645 73 226 0.0 3.0 0.00 0.00 0.00 49 1017.2
20260503023142 73 245 0.0 0.0 0.00 0.00 0.00 48 1016.9
20260503022637 73 224 0.0 0.0 0.00 0.00 0.00 48 1016.9
20260503022132 74 295 0.0 0.0 0.00 0.00 0.00 47 1017.0
20260503021629 74 274 0.0 0.0 0.00 0.00 0.00 47 1017.1
20260503021126 74 273 2.0 7.0 0.00 0.00 0.00 47 1016.9
20260503020623 74 275 3.0 5.0 0.00 0.00 0.00 46 1016.9
20260503020120 75 292 4.0 7.0 0.00 0.00 0.00 46 1017.0
20260503015617 75 243 0.0 3.0 0.00 0.00 0.00 46 1017.0
20260503015114 75 214 0.0 5.0 0.00 0.00 0.00 46 1016.9
20260503014609 75 268 0.0 10.0 0.00 0.00 0.00 45 1017.1
20260503014107 75 264 6.0 10.0 0.00 0.00 0.00 46 1017.0
20260503013605 75 214 0.0 0.0 0.00 0.00 0.00 46 1017.0
20260503013103 75 249 0.0 10.0 0.00 0.00 0.00 46 1016.9
20260503012600 75 232 0.0 0.0 0.00 0.00 0.00 46 1017.3
20260503012056 75 292 0.0 0.0 0.00 0.00 0.00 45 1017.0
20260503011552 76 274 0.0 0.0 0.00 0.00 0.00 45 1017.1
20260503011050 76 262 3.0 7.0 0.00 0.00 0.00 44 1017.2
20260503010546 77 264 0.0 5.0 0.00 0.00 0.00 43 1017.2
20260503010044 77 267 1.0 7.0 0.00 0.00 0.00 42 1017.2
20260503005541 78 348 5.0 10.0 0.00 0.00 0.00 42 1017.1
20260503005038 78 291 6.0 10.0 0.00 0.00 0.00 41 1017.3
20260503004534 78 271 5.0 10.0 0.00 0.00 0.00 41 1017.3
20260503004032 78 210 0.0 7.0 0.00 0.00 0.00 42 1017.2
20260503003528 78 284 8.0 12.0 0.00 0.00 0.00 41 1017.3
20260503003026 78 282 7.0 10.0 0.00 0.00 0.00 41 1017.2
20260503002523 78 250 2.0 15.0 0.00 0.00 0.00 42 1017.3
20260503002020 79 69 0.0 5.0 0.00 0.00 0.00 41 1017.3
20260503001516 80 257 1.0 3.0 0.00 0.00 0.00 40 1017.3
20260503001013 79 167 1.0 3.0 0.00 0.00 0.00 41 1017.3
20260503000511 78 260 0.0 5.0 0.00 0.00 0.00 41 1017.4
20260503000008 78 276 0.0 5.0 0.00 0.00 0.00 42 1017.3
20260502235504 78 280 0.0 7.0 0.00 0.00 0.00 42 1017.5
20260502235002 77 289 7.0 10.0 0.00 0.00 0.00 42 1017.3
20260502234458 77 275 3.0 7.0 0.00 0.00 0.00 43 1017.5
20260502233955 78 248 0.0 0.0 0.00 0.00 0.00 41 1017.5
20260502233450 78 298 5.0 10.0 0.00 0.00 0.00 42 1017.6
20260502232947 78 278 4.0 7.0 0.00 0.00 0.00 42 1017.8
20260502232444 79 228 0.0 3.0 0.00 0.00 0.00 42 1018.0
20260502231941 80 256 0.0 5.0 0.00 0.00 0.00 43 1018.0
20260502231438 78 296 0.0 7.0 0.00 0.00 0.00 44 1018.0
20260502230936 78 249 0.0 12.0 0.00 0.00 0.00 45 1018.0
20260502230434 78 273 4.0 10.0 0.00 0.00 0.00 44 1018.0
20260502225931 79 283 0.0 3.0 0.00 0.00 0.00 44 1018.2
20260502225427 79 198 0.0 0.0 0.00 0.00 0.00 45 1018.4
20260502224924 78 54 0.0 5.0 0.00 0.00 0.00 45 1018.2
20260502224420 78 5 0.0 0.0 0.00 0.00 0.00 44 1018.3
20260502223917 78 266 0.0 5.0 0.00 0.00 0.00 45 1018.4
20260502223415 78 252 0.0 3.0 0.00 0.00 0.00 44 1018.7
20260502222914 78 285 4.0 10.0 0.00 0.00 0.00 45 1018.6
20260502222410 77 271 0.0 5.0 0.00 0.00 0.00 47 1018.6
20260502221905 77 230 0.0 0.0 0.00 0.00 0.00 46 1018.7
20260502221402 75 244 2.0 15.0 0.00 0.00 0.00 48 1018.7
20260502220859 77 246 1.0 3.0 0.00 0.00 0.00 46 1018.8
20260502220355 75 324 3.0 15.0 0.00 0.00 0.00 47 1018.6
20260502215852 75 349 6.0 10.0 0.00 0.00 0.00 48 1018.7
20260502215350 77 311 4.0 7.0 0.00 0.00 0.00 47 1018.9
20260502214846 78 166 0.0 0.0 0.00 0.00 0.00 46 1018.9
20260502214343 76 310 5.0 7.0 0.00 0.00 0.00 47 1019.0
20260502213840 76 265 0.0 5.0 0.00 0.00 0.00 48 1019.0
20260502213337 76 67 0.0 7.0 0.00 0.00 0.00 48 1019.0
20260502212836 75 71 0.0 7.0 0.00 0.00 0.00 50 1019.0
20260502212334 75 239 0.0 0.0 0.00 0.00 0.00 47 1019.2
20260502211831 73 266 0.0 3.0 0.00 0.00 0.00 52 1019.3
20260502211326 72 275 5.0 10.0 0.00 0.00 0.00 52 1019.3
20260502210824 74 292 0.0 7.0 0.00 0.00 0.00 52 1019.4
20260502210321 75 270 1.0 5.0 0.00 0.00 0.00 49 1019.3
20260502205818 75 246 0.0 3.0 0.00 0.00 0.00 49 1019.4
20260502205314 74 32 0.0 0.0 0.00 0.00 0.00 50 1019.5
20260502204811 72 259 7.0 12.0 0.00 0.00 0.00 52 1019.6
20260502204308 72 274 3.0 12.0 0.00 0.00 0.00 52 1019.6
20260502203806 73 63 2.0 5.0 0.00 0.00 0.00 51 1019.7
20260502203304 71 227 0.0 12.0 0.00 0.00 0.00 53 1019.5
20260502202803 72 200 0.0 10.0 0.00 0.00 0.00 52 1019.6
20260502202304 73 218 0.0 0.0 0.00 0.00 0.00 51 1019.8
20260502201759 71 250 5.0 7.0 0.00 0.00 0.00 52 1019.8
20260502201255 71 273 0.0 7.0 0.00 0.00 0.00 53 1020.1
20260502200751 72 299 0.0 7.0 0.00 0.00 0.00 52 1019.8
20260502200247 73 234 0.0 0.0 0.00 0.00 0.00 52 1020.0
20260502195746 72 293 0.0 7.0 0.00 0.00 0.00 52 1020.1
20260502195242 71 31 0.0 3.0 0.00 0.00 0.00 54 1020.1
20260502194738 70 265 0.0 5.0 0.00 0.00 0.00 54 1020.2
20260502194236 72 264 0.0 0.0 0.00 0.00 0.00 52 1020.2
20260502193731 70 205 0.0 7.0 0.00 0.00 0.00 56 1020.4
20260502193229 70 222 0.0 0.0 0.00 0.00 0.00 55 1020.2
20260502192729 69 250 1.0 5.0 0.00 0.00 0.00 57 1020.4
20260502192227 70 269 4.0 5.0 0.00 0.00 0.00 54 1020.4
20260502191723 69 213 0.0 3.0 0.00 0.00 0.00 57 1020.5
20260502191221 67 304 2.0 7.0 0.00 0.00 0.00 59 1020.6
20260502190718 66 276 7.0 10.0 0.00 0.00 0.00 59 1020.4
20260502190216 67 263 0.0 12.0 0.00 0.00 0.00 60 1020.7
20260502185715 68 259 0.0 5.0 0.00 0.00 0.00 59 1020.8
20260502185212 67 256 0.0 10.0 0.00 0.00 0.00 59 1020.8
20260502184709 68 251 0.0 5.0 0.00 0.00 0.00 58 1021.0
20260502184204 68 278 3.0 7.0 0.00 0.00 0.00 58 1020.9
20260502183701 67 255 0.0 0.0 0.00 0.00 0.00 58 1020.9
20260502183157 68 98 0.0 5.0 0.00 0.00 0.00 57 1020.8
20260502182652 68 204 0.0 0.0 0.00 0.00 0.00 58 1021.0
20260502182148 65 309 3.0 7.0 0.00 0.00 0.00 61 1021.2
20260502181646 66 287 1.0 7.0 0.00 0.00 0.00 60 1021.0
20260502181145 66 273 0.0 10.0 0.00 0.00 0.00 59 1021.0
20260502180641 66 250 0.0 3.0 0.00 0.00 0.00 58 1021.2
20260502180139 66 228 0.0 0.0 0.00 0.00 0.00 58 1021.1
20260502164049 59 207 0.0 0.0 0.00 0.00 0.00 70 1021.4
20260502163545 57 216 0.0 5.0 0.00 0.00 0.00 73 1021.4
20260502163042 57 295 0.0 0.0 0.00 0.00 0.00 72 1021.3
20260502162539 57 255 0.0 0.0 0.00 0.00 0.00 73 1021.4
20260502162036 57 250 0.0 0.0 0.00 0.00 0.00 73 1021.3
20260502161533 57 128 0.0 0.0 0.00 0.00 0.00 73 1021.6
20260502161031 56 137 0.0 0.0 0.00 0.00 0.00 75 1021.5
20260502160528 55 125 0.0 0.0 0.00 0.00 0.00 76 1021.7
20260502151930 53 244 0.0 0.0 0.00 0.00 0.00 80 1021.6
20260502151426 53 237 0.0 0.0 0.00 0.00 0.00 80 1021.5
20260502150924 53 243 0.0 0.0 0.00 0.00 0.00 80 1021.6
20260502150420 53 148 0.0 0.0 0.00 0.00 0.00 80 1021.4
20260502130306 52 278 0.0 0.0 0.00 0.00 0.00 82 1021.3
20260502123752 52 212 0.0 0.0 0.00 0.00 0.00 81 1021.3
20260502123249 52 211 0.0 0.0 0.00 0.00 0.00 81 1021.4
20260502122745 52 211 0.0 0.0 0.00 0.00 0.00 81 1021.4
20260502122241 52 216 0.0 0.0 0.00 0.00 0.00 81 1021.6
20260502121740 52 187 0.0 0.0 0.00 0.00 0.00 81 1021.5
20260502121237 52 227 0.0 0.0 0.00 0.00 0.00 81 1021.7
20260502120733 52 196 0.0 0.0 0.00 0.00 0.00 81 1021.9
20260502120230 52 198 0.0 0.0 0.00 0.00 0.00 81 1021.7
20260502115728 52 157 0.0 0.0 0.00 0.00 0.00 81 1021.6
20260502115225 52 172 0.0 0.0 0.00 0.00 0.00 81 1021.6
20260502114720 52 183 0.0 0.0 0.00 0.00 0.00 81 1021.8
20260502114218 52 196 0.0 0.0 0.00 0.00 0.00 81 1021.6
20260502113715 52 150 0.0 0.0 0.00 0.00 0.00 81 1021.6
20260502113213 52 268 0.0 0.0 0.00 0.00 0.00 80 1021.7
20260502112711 52 162 0.0 0.0 0.00 0.00 0.00 80 1021.8
20260502112208 52 164 0.0 0.0 0.00 0.00 0.00 80 1021.9
20260502111705 53 189 0.0 0.0 0.00 0.00 0.00 80 1021.7
20260502111203 53 144 0.0 0.0 0.00 0.00 0.00 79 1021.9
20260502110700 53 192 0.0 0.0 0.00 0.00 0.00 79 1021.8
20260502110157 53 147 0.0 0.0 0.00 0.00 0.00 79 1022.0
20260502105655 53 146 0.0 0.0 0.00 0.00 0.00 78 1021.9
20260502105152 53 208 0.0 0.0 0.00 0.00 0.00 78 1022.1
20260502104649 53 231 0.0 0.0 0.00 0.00 0.00 78 1022.0
20260502104147 53 231 0.0 0.0 0.00 0.00 0.00 78 1022.4
20260502103644 53 159 0.0 5.0 0.00 0.00 0.00 78 1022.3
20260502103142 53 129 1.0 5.0 0.00 0.00 0.00 77 1022.3
20260502102638 53 180 0.0 0.0 0.00 0.00 0.00 78 1022.2
20260502102135 53 211 0.0 0.0 0.00 0.00 0.00 78 1022.0
20260502101633 53 260 0.0 0.0 0.00 0.00 0.00 78 1021.6
20260502101131 53 219 0.0 3.0 0.00 0.00 0.00 78 1021.3
20260502100629 53 171 0.0 0.0 0.00 0.00 0.00 78 1021.3
20260502100127 53 214 0.0 0.0 0.00 0.00 0.00 77 1021.3
20260502091101 54 242 0.0 0.0 0.00 0.00 0.00 76 1021.1
20260502090558 55 216 0.0 0.0 0.00 0.00 0.00 75 1021.3
20260502071452 58 201 0.0 0.0 0.00 0.00 0.00 67 1021.2
20260502070950 58 189 0.0 0.0 0.00 0.00 0.00 67 1021.3
20260502070448 58 216 0.0 0.0 0.00 0.00 0.00 67 1021.3
20260502065946 58 216 0.0 0.0 0.00 0.00 0.00 66 1021.2
20260502065445 59 216 0.0 0.0 0.00 0.00 0.00 65 1021.0
20260502064942 59 212 0.0 0.0 0.00 0.00 0.00 64 1020.9
20260502064440 59 197 0.0 0.0 0.00 0.00 0.00 64 1021.0
20260502063937 59 206 0.0 0.0 0.00 0.00 0.00 63 1021.2
20260502063435 60 215 0.0 0.0 0.00 0.00 0.00 62 1020.9
20260502062932 60 203 0.0 0.0 0.00 0.00 0.00 61 1021.1
20260502062429 61 199 0.0 0.0 0.00 0.00 0.00 60 1020.8
20260502061928 61 209 0.0 0.0 0.00 0.00 0.00 59 1021.1
20260502061426 61 198 0.0 0.0 0.00 0.00 0.00 59 1021.2
20260502060921 62 207 0.0 0.0 0.00 0.00 0.00 58 1020.9
20260502060416 62 280 0.0 5.0 0.00 0.00 0.00 57 1020.9
20260502055914 62 281 0.0 0.0 0.00 0.00 0.00 58 1020.8
20260502055412 62 241 0.0 0.0 0.00 0.00 0.00 59 1020.7
20260502054912 63 214 0.0 0.0 0.00 0.00 0.00 59 1020.6
20260502054409 63 228 0.0 0.0 0.00 0.00 0.00 59 1020.6
20260502053906 63 229 0.0 0.0 0.00 0.00 0.00 59 1020.8
20260502053404 63 229 0.0 0.0 0.00 0.00 0.00 59 1020.5
20260502052900 63 228 0.0 0.0 0.00 0.00 0.00 59 1020.5
20260502052359 63 266 0.0 0.0 0.00 0.00 0.00 59 1020.1
20260502051856 63 240 0.0 3.0 0.00 0.00 0.00 59 1020.4
20260502051355 63 230 0.0 0.0 0.00 0.00 0.00 59 1020.3
20260502050851 64 236 0.0 0.0 0.00 0.00 0.00 58 1020.3
20260502050347 63 278 0.0 0.0 0.00 0.00 0.00 59 1020.3